Weather in Pos'yet

Russia / Primorsky Krai     42°39′09″N   130°48′05″E
temp.,
°C
wind,
m/s
gust,
m/s
humid.,
%
clouds,
%
prec.,
mm/h
press.,
hPa
HPBL,
m
7 may, fri
fri701:00+9ne22840 0.0 100511
04:00+8ene228883 0.0 100324
07:00+8ene238510 0.0 100144
10:00+12ese4670100 0.0 999415
13:00+10ese51175100 0.1 996429
16:00+12se7137210 0.5 991785
19:00+7wsw61380100 0.1 9881031
22:00+9wnw51577100 1.6 991905
8 may, sat
sat801:00+10w71671100 0.0 994863
04:00+9w514720 0.0 994668
07:00+8sse117814 0.0 99722
10:00+11se3767100 0.0 995320
13:00+12ese3471100 0.0 993330
16:00+13nw3574100 0.2 991518
19:00+10s1190100 6.8 99176
22:00+9s1293100 8.2 99181
9 may, sun
sun901:00+7w81487100 0.8 9931144
04:00+7wnw91782100 0.9 9931188
07:00+8wnw7166995 0.0 9961297
10:00+11wnw7145224 0.0 9981452
13:00+14wnw71543100 0.0 9981881
16:00+17wnw7153724 0.0 9982026
19:00+15wnw5124493 0.0 10011645
22:00+9wnw22635 0.0 100418
10 may, mon
mon1001:00+7w22701 0.0 100513
04:00+6nw22740 0.0 100520
07:00+6nnw12710 0.0 100739
10:00+13w24490 0.0 1008623
13:00+17w473734 0.0 10081891
16:00+10sse566965 0.0 1010456
19:00+10sse337798 0.3 1011248
22:00+8ese128999 0.9 1012101
11 may, tue
tue1101:00+8n128971 0.3 101343
04:00+6nw11933 0.0 101511
07:00+7n119398 0.0 101532
10:00+12s117619 0.0 1015400
13:00+12sse447140 0.1 1015769
16:00+11sse457466 0.1 1015429
19:00+10se46785 0.0 1015376
22:00+8ese35905 0.0 1017148